China Lake, CA

3:24 PM PST on February 23, 2018 (GMT -0800)
China Lake NAWS

Weather History for KNID - February, 2012

Change the Weather History Date:

Sunday, February 19, 2012

  Actual Average Record
Temperature  
Mean Temperature 48 °F -  
Max Temperature 60 °F 59 °F 80 °F (2014)
Min Temperature 37 °F 38 °F 28 °F (2009)
Degree Days  
Heating Degree Days 16    
Moisture  
Dew Point 22 °F    
Average Humidity 34    
Maximum Humidity 54    
Minimum Humidity 18    
Precipitation  
Precipitation 0.00 in - - ()
Sea Level Pressure  
Sea Level Pressure 29.92 in    
Wind  
Wind Speed 9 mph (SSW)    
Max Wind Speed 15 mph    
Max Gust Speed 23 mph    
Visibility 10 miles    
Events      
Averages and records for this station are not official NWS values.
T = Trace of Precipitation, MM = Missing Value Source: NWS Daily Summary

Daily Weather History Graph

Daily Weather History Graph

Search for Another Location

Airport or City:

Trip Planner

Search our weather history database for the weather conditions in past years. The results will help you decide how hot, cold, wet, or windy it might be!

Date:

Astronomy

Feb. 19, 2012 Rise Set
Actual Time 6:33 AM PST 5:36 PM PST
Civil Twilight 6:07 AM PST 6:02 PM PST
Nautical Twilight 5:37 AM PST 6:31 PM PST
Astronomical Twilight 5:08 AM PST 7:01 PM PST
Moon 4:54 AM PST (2/19) 3:44 PM PST (2/19)
Length of Visible Light 11h 54m
Length of Day
11h 02m
Waning Crescent, 5% of the Moon is Illuminated
Feb 19
Waning Crescent
Feb 21
New
Feb 29
First Quarter
Mar 8
Full
Mar 14
Last Quarter

Hourly Weather History & Observations

Time (PST) Temp. Windchill Dew Point Humidity Pressure Visibility Wind Dir Wind Speed Gust Speed Precip Events Conditions
12:56 AM 52.0 °F - 25.0 °F 35% 29.86 in 10.0 mi West 12.7 mph - N/A   Clear
1:56 AM 51.1 °F - 28.0 °F 41% 29.86 in 10.0 mi WSW 11.5 mph - N/A   Clear
2:56 AM 50.0 °F - 27.0 °F 41% 29.84 in 10.0 mi SW 12.7 mph - N/A   Clear
3:56 AM 51.1 °F - 24.1 °F 35% 29.84 in 10.0 mi SW 12.7 mph 23.0 mph N/A   Clear
4:56 AM 48.0 °F - 21.9 °F 36% 29.85 in 10.0 mi SW 4.6 mph - N/A   Clear
5:56 AM 46.9 °F - 23.0 °F 39% 29.87 in 10.0 mi Variable 3.5 mph - N/A   Clear
6:56 AM 48.0 °F - 19.9 °F 33% 29.88 in 10.0 mi West 15.0 mph - N/A   Clear
7:56 AM 50.0 °F - 19.0 °F 29% 29.93 in 10.0 mi West 12.7 mph - N/A   Clear
8:56 AM 53.1 °F - 18.0 °F 25% 29.93 in 10.0 mi Variable 4.6 mph - N/A   Clear
9:56 AM 55.9 °F - 19.0 °F 24% 29.94 in 10.0 mi ENE 3.5 mph - N/A   Clear
10:56 AM 55.9 °F - 19.9 °F 25% 29.94 in 10.0 mi Variable 4.6 mph - N/A   Mostly Cloudy
11:56 AM 57.9 °F - 21.9 °F 25% 29.93 in 10.0 mi ESE 10.4 mph 17.3 mph N/A   Mostly Cloudy
12:56 PM 57.9 °F - 17.1 °F 20% 29.92 in 10.0 mi Calm Calm - N/A   Clear
1:56 PM 59.0 °F - 18.0 °F 20% 29.91 in 10.0 mi Variable 3.5 mph - N/A   Clear
2:56 PM 60.1 °F - 16.0 °F 18% 29.90 in 10.0 mi South 4.6 mph - N/A   Clear
6:56 PM 48.9 °F - 25.0 °F 39% 29.94 in 10.0 mi South 10.4 mph - N/A   Clear
7:56 PM 46.9 °F - 25.0 °F 42% 29.96 in 10.0 mi South 9.2 mph - N/A   Clear
8:56 PM 46.0 °F 42.5 °F 25.0 °F 44% 29.99 in 10.0 mi SSW 6.9 mph - N/A   Clear
9:56 PM 44.1 °F 40.1 °F 24.1 °F 45% 30.01 in 10.0 mi SE 6.9 mph - N/A   Clear
10:56 PM 37.0 °F 32.4 °F 21.9 °F 54% 30.02 in 10.0 mi South 5.8 mph - N/A   Clear
11:56 PM 37.0 °F 31.0 °F 21.9 °F 54% 30.04 in 10.0 mi South 8.1 mph - N/A   Clear